Pembrey Sands, United Kingdom

8:51 PM BST on April 27, 2017 (GMT +0100)
Pembrey Sands

Weather History for EGOP - November, 2011

Change the Weather History Date:

Saturday, November 5, 2011

  Actual Average Record
Temperature  
Mean Temperature 48 °F -  
Max Temperature 56 °F - - ()
Min Temperature 39 °F - - ()
Degree Days  
Heating Degree Days 18    
Moisture  
Dew Point 44 °F    
Average Humidity 87    
Maximum Humidity 100    
Minimum Humidity 65    
Precipitation  
Precipitation 0.01 in - - ()
Sea Level Pressure  
Sea Level Pressure 29.87 in    
Wind  
Wind Speed 7 mph ()    
Max Wind Speed 15 mph    
Max Gust Speed -    
Visibility 7.2 miles    
Events      
T = Trace of Precipitation, MM = Missing Value Source: Averaged Metar Reports

Daily Weather History Graph

Daily Weather History Graph

Search for Another Location

Airport or City:

Trip Planner

Search our weather history database for the weather conditions in past years. The results will help you decide how hot, cold, wet, or windy it might be!

Date:

Astronomy

Nov. 05, 2011 Rise Set
Actual Time 7:17 AM GMT 4:43 PM GMT
Civil Twilight 6:42 AM GMT 5:19 PM GMT
Nautical Twilight 6:02 AM GMT 5:59 PM GMT
Astronomical Twilight 5:23 AM GMT 6:38 PM GMT
Moon 2:24 PM GMT (11/5) 1:40 AM GMT (11/5)
Length of Visible Light 10h 37m
Length of Day
9h 25m
Waxing Gibbous, 76% of the Moon is Illuminated
Nov 5
Waxing Gibbous
Nov 10
Full
Nov 18
Last Quarter
Nov 25
New
Dec 2
First Quarter

Hourly Weather History & Observations

Time (GMT) Temp. Windchill Dew Point Humidity Pressure Visibility Wind Dir Wind Speed Gust Speed Precip Events Conditions
12:50 AM 44.6 °F - 44.6 °F 100% 29.62 in 6.2 mi NNE 2.3 mph - N/A   Mostly Cloudy
1:50 AM 41.0 °F 37.1 °F 39.2 °F 93% 29.65 in 3.7 mi North 5.8 mph - N/A   Unknown
2:50 AM 40 °F - 39 °F 94% 29.66 in 4 mi NNW 9.2 mph - -  
2:50 AM 39.2 °F 33.0 °F 39.2 °F 100% 29.65 in 4.3 mi NNW 9.2 mph - N/A   Unknown
3:50 AM 42.8 °F 39.3 °F 42.8 °F 100% 29.68 in 6.2 mi NE 5.8 mph - N/A   Unknown
4:50 AM 39.2 °F 35.9 °F 37.4 °F 93% 29.68 in 0.4 mi North 4.6 mph - N/A   Unknown
5:50 AM 44 °F - 43 °F 97% 29.73 in 11 mi NE 5.8 mph - -  
5:50 AM 44.6 °F 41.4 °F 42.8 °F 93% 29.71 in 6.2 mi NE 5.8 mph - N/A   Unknown
6:50 AM 42.8 °F 39.3 °F 42.8 °F 100% 29.74 in 6.2 mi ENE 5.8 mph - N/A   Partly Cloudy
9:50 AM 50.0 °F - 48.2 °F 94% 29.83 in 6.2 mi NNW 5.8 mph - N/A   Mostly Cloudy
10:50 AM 51.8 °F - 50.0 °F 94% 29.83 in 6.2 mi NW 4.6 mph - N/A   Overcast
11:50 AM 55 °F - 47 °F 68% 29.86 in 22 mi North 10.4 mph - -   Scattered Clouds
11:50 AM 55.4 °F - 48.2 °F 77% 29.86 in 6.2 mi North 10.4 mph - N/A   Mostly Cloudy
12:50 PM 55.4 °F - 46.4 °F 72% 29.86 in 6.2 mi NNW 13.8 mph - N/A   Partly Cloudy
1:50 PM 55.4 °F - 44.6 °F 67% 29.86 in 6.2 mi North 12.7 mph - N/A   Partly Cloudy
2:50 PM 54 °F - 46 °F 65% 29.91 in 19 mi NNW 15.0 mph - -   Scattered Clouds
2:50 PM 53.6 °F - 46.4 °F 77% 29.89 in 6.2 mi NNW 15.0 mph - N/A   Partly Cloudy
3:50 PM 51.8 °F - 44.6 °F 76% 29.92 in 6.2 mi North 12.7 mph - N/A   Unknown
4:50 PM 50.0 °F - 44.6 °F 82% 29.98 in 6.2 mi NNW 9.2 mph - N/A   Unknown
5:50 PM 49 °F - 45 °F 80% 30.01 in 25 mi NNW 10.4 mph - -   Scattered Clouds
5:50 PM 50.0 °F - 44.6 °F 82% 30.01 in 6.2 mi NNW 10.4 mph - N/A   Partly Cloudy
6:50 PM 48.2 °F - 44.6 °F 87% 30.04 in 6.2 mi North 6.9 mph - N/A   Partly Cloudy
8:50 PM 48 °F - 44 °F 83% 30.10 in 17 mi NNW 9.2 mph - -   Scattered Clouds
8:50 PM 48.2 °F - 44.6 °F 87% 30.09 in 6.2 mi NNW 9.2 mph - N/A   Scattered Clouds
10:50 PM 41.0 °F 36.4 °F 39.2 °F 93% 30.12 in 6.2 mi North 6.9 mph - N/A   Unknown
11:50 PM 39 °F - 38 °F 97% 30.15 in 14 mi North 2.3 mph - -  
11:50 PM 39.2 °F - 39.2 °F 100% 30.12 in 6.2 mi North 2.3 mph - N/A   Unknown